Weather History for Bow Valley, AB

Change the Weather History Date:

Sunday, November 25, 2012

  Actual Average Record
Temperature  
Mean Temperature 24 °F -  
Max Temperature 32 °F - - ()
Min Temperature 17 °F - - ()
Degree Days  
Heating Degree Days 40    
Moisture  
Dew Point 15 °F    
Average Humidity 65    
Maximum Humidity 84    
Minimum Humidity 36    
Precipitation  
Precipitation 0.00 in - - ()
Sea Level Pressure  
Sea Level Pressure 30.14 in    
Wind  
Wind Speed 5 mph ()    
Max Wind Speed 13 mph    
Max Gust Speed 20 mph    
T = Trace of Precipitation, MM = Missing Value Source: Averaged Metar Reports

Daily Weather History Graph

Daily Weather History Graph

Search for Another Location

Airport:

Trip Planner

Search our weather history database for the weather conditions in past years. The results will help you decide how hot, cold, wet, or windy it might be!

Date:

Astronomy

Nov. 25, 2012 Rise Set
Actual Time 8:13 AM MST 4:40 PM MST
Civil Twilight 7:35 AM MST 5:18 PM MST
Nautical Twilight 6:54 AM MST 5:59 PM MST
Astronomical Twilight 6:15 AM MST 6:39 PM MST
Moon 3:10 PM MST 5:19 AM MST
Length of Visible Light 9h 42m
Length of Day
8h 26m
Waxing Gibbous, 93% of the Moon is Illuminated
Nov 25
Waxing Gibbous
Nov 28
Full
Dec 6
Last Quarter
Dec 13
New
Dec 19
First Quarter

Hourly Weather History & Observations

Time (MST) Temp. Windchill Dew Point Humidity Pressure Visibility Wind Dir Wind Speed Gust Speed Precip Events Conditions
12:00 AM 18.5 °F - 14.4 °F 84% 30.08 in - WSW 1.2 mph - N/A   Unknown
1:00 AM 20.1 °F - 16.0 °F 84% 30.06 in - North 1.2 mph - N/A   Unknown
2:00 AM 24.3 °F 16.3 °F 18.5 °F 79% 30.04 in - WSW 6.9 mph - N/A   Unknown
3:00 AM 22.1 °F - 16.3 °F 79% 30.06 in - NNW 2.3 mph - N/A   Unknown
4:00 AM 23.9 °F 15.8 °F 17.4 °F 76% 30.06 in - West 6.9 mph - N/A   Unknown
5:00 AM 19 °F - 14 °F 74% 30.09 in - North 1.2 mph - -  
5:00 AM 19.4 °F - 14.4 °F 81% 30.09 in - North 1.2 mph - N/A   Unknown
6:00 AM 23.5 °F 13.7 °F 16.9 °F 76% 30.07 in - West 9.2 mph 19.6 mph N/A   Unknown
7:00 AM 23.9 °F 12.3 °F 16.9 °F 75% 30.08 in - West 12.7 mph 19.6 mph N/A   Unknown
8:00 AM 23.4 °F 11.6 °F 16.3 °F 75% 30.09 in - WSW 12.7 mph 19.6 mph N/A   Unknown
9:00 AM 23.0 °F 12.4 °F 16.2 °F 75% 30.12 in - WSW 10.4 mph - N/A   Unknown
10:00 AM 22.8 °F 11.5 °F 15.6 °F 74% 30.16 in - WSW 11.5 mph 19.6 mph N/A   Unknown
11:00 AM 23 °F - 15 °F 62% 30.17 in - WSW 10.4 mph - -  
11:00 AM 22.8 °F 12.2 °F 15.3 °F 73% 30.17 in - WSW 10.4 mph 17.3 mph N/A   Unknown
12:00 PM 26.6 °F 18.2 °F 16.0 °F 64% 30.14 in - WSW 8.1 mph - N/A   Unknown
1:00 PM 29.1 °F 21.3 °F 15.3 °F 56% 30.13 in - WSW 8.1 mph - N/A   Unknown
2:00 PM 31.5 °F 24.9 °F 14.7 °F 50% 30.13 in - WSW 6.9 mph - N/A   Unknown
3:00 PM 30.7 °F 24.1 °F 11.8 °F 46% 30.14 in - WSW 6.9 mph - N/A   Unknown
4:00 PM 30.4 °F 22.9 °F 11.7 °F 46% 30.17 in - WSW 8.1 mph - N/A   Unknown
5:00 PM 29 °F - 13 °F 36% 30.18 in - SW 3.5 mph - -  
5:00 PM 28.8 °F 25.0 °F 12.6 °F 51% 30.18 in - SW 3.5 mph - N/A   Unknown
6:00 PM 28.8 °F 20.2 °F 11.8 °F 49% 30.18 in - WSW 9.2 mph 18.4 mph N/A   Unknown
7:00 PM 28.0 °F 20.0 °F 11.7 °F 50% 30.20 in - WSW 8.1 mph 19.6 mph N/A   Unknown
8:00 PM 27.0 °F 18.0 °F 12.2 °F 54% 30.22 in - WSW 9.2 mph - N/A   Unknown
9:00 PM 25.5 °F 16.9 °F 12.7 °F 58% 30.23 in - WSW 8.1 mph - N/A   Unknown
10:00 PM 24.8 °F 15.3 °F 13.6 °F 63% 30.25 in - WSW 9.2 mph - N/A   Unknown
11:00 PM 24 °F - 14 °F 53% 30.23 in - WSW 6.9 mph - -  
11:00 PM 23.5 °F 15.4 °F 13.8 °F 66% 30.23 in - WSW 6.9 mph - N/A   Unknown